Regional Weather Roundup
Issued by NWS

Home | Current Version | Previous Version | Text Only | Print | Product List | Glossary Off
Versions: 1 2 3 4 5 6 7 8 9 10 11 12 13 14 15 16 17 18 19 20 21 22 23 24 25 26 27 28 29 30 31 32 33 34 35 36 37 38 39 40 41 42 43 44 45 46 47 48 49 50

538
ASUS43 KDTX 181010
RWRMI
MICHIGAN HOURLY REGIONAL WEATHER ROUNDUP
NATIONAL WEATHER SERVICE DETROIT/PONTIAC MI
500 AM EST MON DEC 18 2017

NOTE: "FAIR" INDICATES FEW OR NO CLOUDS BELOW 12,000 FEET WITH NO
SIGNIFICANT WEATHER AND/OR OBSTRUCTION TO VISIBILITY.

MIZ047>049-052>055-059>063-066>070-074>076-081>083-181100-
SOUTHEAST LOWER MICHIGAN

CITY           SKY/WX    TMP DP  RH WIND       PRES   REMARKS
ADRIAN         CLOUDY    36  34  92 SW8       29.98R WCI  30
ALMA           LGT SNOW  32  32 100 SW6       29.91F WCI  26
ANN ARBOR      CLOUDY    37  35  92 S7        29.95F FOG     WCI  32
BAD AXE        LGT SNOW  28  27  96 CALM      29.93S
CARO           MIX PCPN  30  29  96 CALM      29.92F
DETROIT CITY   CLOUDY    37  35  92 S6        29.96F WCI  32
DETROIT        CLOUDY    38  34  85 S9        29.97F WCI  31
FLINT          CLOUDY    36  33  89 SW5       29.93F WCI  32
GROSSE ILE     CLOUDY    34  33  94 MISG      29.96F FOG
HILLSDALE      CLOUDY    36  34  93 S7        29.94S FOG     WCI  30
HOWELL         CLOUDY    37  36  96 SW5       29.93S WCI  33

CITY           SKY/WX    TMP DP  RH WIND       PRES   REMARKS
JACKSON        CLOUDY    39  35  86 SW12      29.94S FOG     WCI  32
LAMBERTVILLE   CLOUDY    38  34  85 S6        29.98S WCI  33
LANSING        CLOUDY    37  35  92 SW7       29.93S WCI  32
LAPEER         CLOUDY    37  35  92 SW7       29.93S WCI  31
MASON          CLOUDY    38  34  83 CALM      29.93S
MONROE         CLOUDY    38  33  82 SW7       29.97F WCI  33
MT. CLEMENS    CLOUDY    36  36 100 SW8       29.94S WCI  30
PONTIAC        CLOUDY    32  32 100 CALM      29.92F FOG
PORT HOPE        N/A     28  26  92 SW5       29.92S WCI  23
PORT HURON     CLOUDY    32  30  93 CALM      29.96S FOG
TRI CITIES     LGT SNOW  30  30 100 CALM      29.92F FOG
MIDLAND        LGT SNOW  29  27  92 CALM      29.91F
TROY           CLOUDY    34  33  96 SW3       29.96F FOG
SAGINAW HB     MIX PCPN  32  32 100 S3        29.92F
$$
MIZ043>046-050>051-056>058-064>065-071>073-077>080-181100-
SOUTHWEST LOWER MICHIGAN

CITY           SKY/WX    TMP DP  RH WIND       PRES   REMARKS
BATTLE CREEK   CLOUDY    37  35  92 SW10      29.93F WCI  30
BENTON HARBOR  CLOUDY    39  36  89 S9        29.93F FOG     WCI  33
BIG RAPIDS     LGT SNOW  27  26  96 CALM      29.89F
COLDWATER      CLOUDY    38  38  97 SW9       29.95F WCI  32
HOLLAND        MIX PCPN  36  34  92 CALM      29.92F VSB 1
GRAND RAPIDS   CLOUDY    36  35  96 SW3       29.91F FOG
IONIA          LGT RAIN  34  33  94 SW5       29.91F WCI  30
KALAMAZOO      CLOUDY    38  36  92 SW10      29.94F WCI  31
LUDINGTON      MIX PCPN  30  29  96 CALM      29.89F
MARSHALL       CLOUDY    37  37  97 SW8       29.94S WCI  31
MOUNT PLEASANT CLOUDY    28  27  95 CALM      29.90F FOG
MUSKEGON       LGT RAIN  36  34  92 SW6       29.91F VSB 3/4 WCI  31
SOUTH HAVEN    CLOUDY    40  37  87 S6        29.93F
$$
MIZ016>042-181100-
NORTHERN LOWER MICHIGAN

CITY           SKY/WX    TMP DP  RH WIND       PRES   REMARKS
ALPENA         CLOUDY    28  27  96 SW6       29.90F FOG     WCI  22
BEAVER ISLAND  LGT SNOW  33  32  96 CALM      29.86F
BELLAIRE       CLOUDY    28  28 100 CALM      29.89F FOG
CADILLAC       FOG       26  26  98 CALM      29.86F VSB 1/2
CHARLEVOIX     FOG       28  28 100 S5        29.91F VSB 1   WCI  23
FRANKFORT      CLOUDY    31  31 100 SE3       29.88S FOG
GAYLORD        FOG       24  23  96 S5        29.85F VSB 1/4 WCI  18
GRAYLING       CLOUDY    26  24  93 CALM      29.88F FOG
HARBOR SPRINGS CLOUDY    26  26  98 CALM      29.89S FOG
HOUGHTON LAKE  FOG       26  24  92 SW3       29.89F VSB 1/2
MANISTEE       SNOW      29  28  96 CALM      29.89F VSB 1/2
OSCODA         CLOUDY    28  28  98 SW6       29.91S FOG     WCI  22
PELLSTON       CLOUDY    26  25  96 SE5       29.88F FOG     WCI  20
ROGERS CITY    CLOUDY    27  25  93 SW5       29.90F FOG     WCI  22
TRAVERSE CITY  CLOUDY    29  28  96 CALM      29.88F FOG
$$
MIZ007>008-015-181100-
EASTERN UPPER MICHIGAN

CITY           SKY/WX    TMP DP  RH WIND       PRES   REMARKS
MACKINAC ISLAN CLOUDY    29  26  89 S5        29.87F FOG     WCI  24
NEWBERRY       CLOUDY    24  24  97 CALM      29.85S
S. S. MARIE    CLOUDY    21  18  88 NE3       29.87F
MUNISING         N/A     25  25 100 S5        29.84F WCI  19
$$
MIZ004>006-011>014-085-181100-
CENTRAL UPPER MICHIGAN

CITY           SKY/WX    TMP DP  RH WIND       PRES   REMARKS
MANISTIQUE     CLOUDY    29  24  81 CALM      29.85F HAZE
ESCANABA       CLOUDY    26  25  96 W3        29.86F FOG
MENOMINEE      CLOUDY    28  26  92 W3        29.88F FOG
SAWYER-GWINN   CLOUDY    23  22  98 CALM      29.82S FOG
$$
MIZ001>003-009>011-084-181100-
WESTERN UPPER MICHIGAN

CITY           SKY/WX    TMP DP  RH WIND       PRES   REMARKS
IRON MOUNTAIN  CLOUDY    26  23  88 W5        29.81F WCI  20
HOUGHTON       CLOUDY    27  23  85 W9        29.79F WCI  18
COPPER HARBOR    N/A     29  24  82 VRB3      29.80F
IRONWOOD       CLOUDY    25  24  96 S5        29.81F WCI  19
$$

ABBREVIATIONS USED IN REMARKS
   TC - TEMPERATURE IN CELSIUS
  WCI - WIND CHILL INDEX
   HX - HEAT INDEX
  VSB - VISIBILITY





USA.gov is the U.S. government's official web portal to all federal, state and local government web resources and services.